Year,Month,Day,Hour,Minute,Value (Times are PST for temperature in C)
2020,04,15,00,00,8.50
2020,04,15,00,01,8.50
2020,04,15,00,02,8.50
2020,04,15,00,03,8.50
2020,04,15,00,04,8.50
2020,04,15,00,05,8.50
2020,04,15,00,06,8.50
2020,04,15,00,07,8.50
2020,04,15,00,08,8.50
2020,04,15,00,09,8.50
2020,04,15,00,10,8.50
2020,04,15,00,11,8.50
2020,04,15,00,12,8.50
2020,04,15,00,13,8.50
2020,04,15,00,14,8.50
2020,04,15,00,15,8.40
2020,04,15,00,16,8.40
2020,04,15,00,17,8.40
2020,04,15,00,18,8.40
2020,04,15,00,19,8.40
2020,04,15,00,20,8.40
2020,04,15,00,21,8.40
2020,04,15,00,22,8.40
2020,04,15,00,23,8.40
2020,04,15,00,24,8.40
2020,04,15,00,25,8.40
2020,04,15,00,26,8.40
2020,04,15,00,27,8.40
2020,04,15,00,28,8.40
2020,04,15,00,29,8.40
2020,04,15,00,30,8.40
2020,04,15,00,31,8.40
2020,04,15,00,32,8.40
2020,04,15,00,33,8.40
2020,04,15,00,34,8.40
2020,04,15,00,35,8.40
2020,04,15,00,36,8.40
2020,04,15,00,37,8.40
2020,04,15,00,38,8.40
2020,04,15,00,39,8.40
2020,04,15,00,40,8.40
2020,04,15,00,41,8.30
2020,04,15,00,42,8.30
2020,04,15,00,43,8.30
2020,04,15,00,44,8.30
2020,04,15,00,45,8.30
2020,04,15,00,46,8.30
2020,04,15,00,47,8.30
2020,04,15,00,48,8.30
2020,04,15,00,49,8.30
2020,04,15,00,50,8.30
2020,04,15,00,51,8.30
2020,04,15,00,52,8.30
2020,04,15,00,53,8.30
2020,04,15,00,54,8.30
2020,04,15,00,55,8.30
2020,04,15,00,56,8.30
2020,04,15,00,57,8.30
2020,04,15,00,58,8.30
2020,04,15,00,59,8.30
2020,04,15,01,00,8.30
2020,04,15,01,01,8.30
2020,04,15,01,02,8.30
2020,04,15,01,03,8.30
2020,04,15,01,04,8.30
2020,04,15,01,05,8.30
2020,04,15,01,06,8.30
2020,04,15,01,07,8.30
2020,04,15,01,08,8.30
2020,04,15,01,09,8.30
2020,04,15,01,10,8.30
2020,04,15,01,11,8.30
2020,04,15,01,12,8.30
2020,04,15,01,13,8.30
2020,04,15,01,14,8.30
2020,04,15,01,15,8.30
2020,04,15,01,16,8.30
2020,04,15,01,17,8.30
2020,04,15,01,18,8.30
2020,04,15,01,19,8.30
2020,04,15,01,20,8.30
2020,04,15,01,21,8.30
2020,04,15,01,22,8.30
2020,04,15,01,23,8.30
2020,04,15,01,24,8.30
2020,04,15,01,25,8.30
2020,04,15,01,26,8.30
2020,04,15,01,27,8.30
2020,04,15,01,28,8.30
2020,04,15,01,29,8.30
2020,04,15,01,30,8.30
2020,04,15,01,31,8.30
2020,04,15,01,32,8.30
2020,04,15,01,33,8.30
2020,04,15,01,34,8.30
2020,04,15,01,35,8.30
2020,04,15,01,36,8.30
2020,04,15,01,37,8.30
2020,04,15,01,38,8.30
2020,04,15,01,39,8.30
2020,04,15,01,40,8.30
2020,04,15,01,41,8.30
2020,04,15,01,42,8.30
2020,04,15,01,43,8.30
2020,04,15,01,44,8.30
2020,04,15,01,45,8.30
2020,04,15,01,46,8.30
2020,04,15,01,47,8.30
2020,04,15,01,48,8.30
2020,04,15,01,49,8.30
2020,04,15,01,50,8.30
2020,04,15,01,51,8.30
2020,04,15,01,52,8.30
2020,04,15,01,53,8.20
2020,04,15,01,54,8.20
2020,04,15,01,55,8.20
2020,04,15,01,56,8.20
2020,04,15,01,57,8.20
2020,04,15,01,58,8.20
2020,04,15,01,59,8.20
2020,04,15,02,00,8.20
2020,04,15,02,01,8.20
2020,04,15,02,02,8.20
2020,04,15,02,03,8.20
2020,04,15,02,04,8.20
2020,04,15,02,05,8.20
2020,04,15,02,06,8.20
2020,04,15,02,07,8.10
2020,04,15,02,08,8.10
2020,04,15,02,09,8.10
2020,04,15,02,10,8.10
2020,04,15,02,11,8.10
2020,04,15,02,12,8.10
2020,04,15,02,13,8.00
2020,04,15,02,14,8.00
2020,04,15,02,15,8.00
2020,04,15,02,16,8.00
2020,04,15,02,17,7.90
2020,04,15,02,18,7.90
2020,04,15,02,19,7.90
2020,04,15,02,20,7.90
2020,04,15,02,21,7.90
2020,04,15,02,22,7.90
2020,04,15,02,23,7.90
2020,04,15,02,24,7.80
2020,04,15,02,25,7.80
2020,04,15,02,26,7.80
2020,04,15,02,27,7.80
2020,04,15,02,28,7.80
2020,04,15,02,29,7.80
2020,04,15,02,30,7.80
2020,04,15,02,31,7.80
2020,04,15,02,32,7.80
2020,04,15,02,33,7.80
2020,04,15,02,34,7.80
2020,04,15,02,35,7.80
2020,04,15,02,36,7.80
2020,04,15,02,37,7.80
2020,04,15,02,38,7.80
2020,04,15,02,39,7.80
2020,04,15,02,40,7.80
2020,04,15,02,41,7.80
2020,04,15,02,42,7.80
2020,04,15,02,43,7.80
2020,04,15,02,44,7.80
2020,04,15,02,45,7.70
2020,04,15,02,46,7.70
2020,04,15,02,47,7.70
2020,04,15,02,48,7.70
2020,04,15,02,49,7.70
2020,04,15,02,50,7.70
2020,04,15,02,51,7.70
2020,04,15,02,52,7.70
2020,04,15,02,53,7.60
2020,04,15,02,54,7.60
2020,04,15,02,55,7.60
2020,04,15,02,56,7.60
2020,04,15,02,57,7.60
2020,04,15,02,58,7.60
2020,04,15,02,59,7.60
2020,04,15,03,00,7.60
2020,04,15,03,01,7.60
2020,04,15,03,02,7.60
2020,04,15,03,03,7.60
2020,04,15,03,04,7.60
2020,04,15,03,05,7.60
2020,04,15,03,06,7.60
2020,04,15,03,07,7.50
2020,04,15,03,08,7.50
2020,04,15,03,09,7.50
2020,04,15,03,10,7.50
2020,04,15,03,11,7.50
2020,04,15,03,12,7.50
2020,04,15,03,13,7.50
2020,04,15,03,14,7.50
2020,04,15,03,15,7.50
2020,04,15,03,16,7.50
2020,04,15,03,17,7.50
2020,04,15,03,18,7.50
2020,04,15,03,19,7.50
2020,04,15,03,20,7.50
2020,04,15,03,21,7.50
2020,04,15,03,22,7.60
2020,04,15,03,23,7.60
2020,04,15,03,24,7.60
2020,04,15,03,25,7.60
2020,04,15,03,26,7.60
2020,04,15,03,27,7.60
2020,04,15,03,28,7.60
2020,04,15,03,29,7.60
2020,04,15,03,30,7.60
2020,04,15,03,31,7.60
2020,04,15,03,32,7.60
2020,04,15,03,33,7.60
2020,04,15,03,34,7.60
2020,04,15,03,35,7.60
2020,04,15,03,36,7.60
2020,04,15,03,37,7.60
2020,04,15,03,38,7.60
2020,04,15,03,39,7.60
2020,04,15,03,40,7.50
2020,04,15,03,41,7.50
2020,04,15,03,42,7.50
2020,04,15,03,43,7.50
2020,04,15,03,44,7.50
2020,04,15,03,45,7.50
2020,04,15,03,46,7.50
2020,04,15,03,47,7.50
2020,04,15,03,48,7.50
2020,04,15,03,49,7.50
2020,04,15,03,50,7.50
2020,04,15,03,51,7.50
2020,04,15,03,52,7.50
2020,04,15,03,53,7.50
2020,04,15,03,54,7.50
2020,04,15,03,55,7.50
2020,04,15,03,56,7.50
2020,04,15,03,57,7.50
2020,04,15,03,58,7.50
2020,04,15,03,59,7.50
2020,04,15,04,00,7.50
2020,04,15,04,01,7.50
2020,04,15,04,02,7.50
2020,04,15,04,03,7.50
2020,04,15,04,04,7.50
2020,04,15,04,05,7.50
2020,04,15,04,06,7.50
2020,04,15,04,07,7.50
2020,04,15,04,08,7.50
2020,04,15,04,09,7.50
2020,04,15,04,10,7.40
2020,04,15,04,11,7.40
2020,04,15,04,12,7.40
2020,04,15,04,13,7.40
2020,04,15,04,14,7.40
2020,04,15,04,15,7.40
2020,04,15,04,16,7.40
2020,04,15,04,17,7.40
2020,04,15,04,18,7.30
2020,04,15,04,19,7.30
2020,04,15,04,20,7.30
2020,04,15,04,21,7.30
2020,04,15,04,22,7.30
2020,04,15,04,23,7.30
2020,04,15,04,24,7.30
2020,04,15,04,25,7.30
2020,04,15,04,26,7.30
2020,04,15,04,27,7.30
2020,04,15,04,28,7.30
2020,04,15,04,29,7.30
2020,04,15,04,30,7.30
2020,04,15,04,31,7.30
2020,04,15,04,32,7.20
2020,04,15,04,33,7.20
2020,04,15,04,34,7.20
2020,04,15,04,35,7.20
2020,04,15,04,36,7.20
2020,04,15,04,37,7.10
2020,04,15,04,38,7.10
2020,04,15,04,39,7.10
2020,04,15,04,40,7.00
2020,04,15,04,41,7.00
2020,04,15,04,42,7.00
2020,04,15,04,43,7.00
2020,04,15,04,44,6.90
2020,04,15,04,45,6.90
2020,04,15,04,46,6.90
2020,04,15,04,47,6.80
2020,04,15,04,48,6.80
2020,04,15,04,49,6.80
2020,04,15,04,50,6.80
2020,04,15,04,51,6.80
2020,04,15,04,52,6.80
2020,04,15,04,53,6.80
2020,04,15,04,54,6.80
2020,04,15,04,55,6.70
2020,04,15,04,56,6.70
2020,04,15,04,57,6.70
2020,04,15,04,58,6.70
2020,04,15,04,59,6.70
2020,04,15,05,00,6.70
2020,04,15,05,01,6.70
2020,04,15,05,02,6.70
2020,04,15,05,03,6.70
2020,04,15,05,04,6.70
2020,04,15,05,05,6.60
2020,04,15,05,06,6.60
2020,04,15,05,07,6.60
2020,04,15,05,08,6.60
2020,04,15,05,09,6.60
2020,04,15,05,10,6.60
2020,04,15,05,11,6.60
2020,04,15,05,12,6.60
2020,04,15,05,13,6.60
2020,04,15,05,14,6.60
2020,04,15,05,15,6.50
2020,04,15,05,16,6.40
2020,04,15,05,17,6.40
2020,04,15,05,18,6.40
2020,04,15,05,19,6.40
2020,04,15,05,20,6.40
2020,04,15,05,21,6.40
2020,04,15,05,22,6.40
2020,04,15,05,23,6.40
2020,04,15,05,24,6.40
2020,04,15,05,25,6.40
2020,04,15,05,26,6.40
2020,04,15,05,27,6.40
2020,04,15,05,28,6.40
2020,04,15,05,29,6.40
2020,04,15,05,30,6.40
2020,04,15,05,31,6.40
2020,04,15,05,32,6.40
2020,04,15,05,33,6.40
2020,04,15,05,34,6.40
2020,04,15,05,35,6.40
2020,04,15,05,36,6.40
2020,04,15,05,37,6.40
2020,04,15,05,38,6.40
2020,04,15,05,39,6.40
2020,04,15,05,40,6.40
2020,04,15,05,41,6.40
2020,04,15,05,42,6.40
2020,04,15,05,43,6.40
2020,04,15,05,44,6.40
2020,04,15,05,45,6.40
2020,04,15,05,46,6.40
2020,04,15,05,47,6.40
2020,04,15,05,48,6.40
2020,04,15,05,49,6.40
2020,04,15,05,50,6.40
2020,04,15,05,51,6.40
2020,04,15,05,52,6.40
2020,04,15,05,53,6.40
2020,04,15,05,54,6.40
2020,04,15,05,55,6.40
2020,04,15,05,56,6.40
2020,04,15,05,57,6.40
2020,04,15,05,58,6.40
2020,04,15,05,59,6.40
2020,04,15,06,00,6.40
2020,04,15,06,01,6.40
2020,04,15,06,02,6.40
2020,04,15,06,03,6.40
2020,04,15,06,04,6.40
2020,04,15,06,05,6.50
2020,04,15,06,06,6.60
2020,04,15,06,07,6.60
2020,04,15,06,08,6.60
2020,04,15,06,09,6.60
2020,04,15,06,10,6.60
2020,04,15,06,11,6.60
2020,04,15,06,12,6.60
2020,04,15,06,13,6.60
2020,04,15,06,14,6.60
2020,04,15,06,15,6.60
2020,04,15,06,16,6.60
2020,04,15,06,17,6.60
2020,04,15,06,18,6.60
2020,04,15,06,19,6.60
2020,04,15,06,20,6.60
2020,04,15,06,21,6.60
2020,04,15,06,22,6.60
2020,04,15,06,23,6.60
2020,04,15,06,24,6.60
2020,04,15,06,25,6.60
2020,04,15,06,26,6.70
2020,04,15,06,27,6.70
2020,04,15,06,28,6.70
2020,04,15,06,29,6.70
2020,04,15,06,30,6.70
2020,04,15,06,31,6.70
2020,04,15,06,32,6.60
2020,04,15,06,33,6.60
2020,04,15,06,34,6.60
2020,04,15,06,35,6.60
2020,04,15,06,36,6.60
2020,04,15,06,37,6.60
2020,04,15,06,38,6.70
2020,04,15,06,39,6.70
2020,04,15,06,40,6.70
2020,04,15,06,41,6.70
2020,04,15,06,42,6.70
2020,04,15,06,43,6.70
2020,04,15,06,44,6.60
2020,04,15,06,45,6.60
2020,04,15,06,46,6.60
2020,04,15,06,47,6.70
2020,04,15,06,48,6.70
2020,04,15,06,49,6.80
2020,04,15,06,50,6.80
2020,04,15,06,51,6.80
2020,04,15,06,52,6.80
2020,04,15,06,53,6.80
2020,04,15,06,54,6.80
2020,04,15,06,55,6.80
2020,04,15,06,56,6.80
2020,04,15,06,57,6.80
2020,04,15,06,58,6.80
2020,04,15,06,59,6.80
2020,04,15,07,00,6.80
2020,04,15,07,01,6.80
2020,04,15,07,02,6.80
2020,04,15,07,03,6.90
2020,04,15,07,04,6.90
2020,04,15,07,05,6.90
2020,04,15,07,06,7.00
2020,04,15,07,07,7.00
2020,04,15,07,08,7.10
2020,04,15,07,09,7.20
2020,04,15,07,10,7.20
2020,04,15,07,11,7.30
2020,04,15,07,12,7.30
2020,04,15,07,13,7.40
2020,04,15,07,14,7.40
2020,04,15,07,15,7.50
2020,04,15,07,16,7.60
2020,04,15,07,17,7.60
2020,04,15,07,18,7.60
2020,04,15,07,19,7.70
2020,04,15,07,20,7.70
2020,04,15,07,21,7.80
2020,04,15,07,22,7.80
2020,04,15,07,23,7.80
2020,04,15,07,24,7.90
2020,04,15,07,25,7.90
2020,04,15,07,26,7.90
2020,04,15,07,27,7.90
2020,04,15,07,28,8.00
2020,04,15,07,29,8.10
2020,04,15,07,30,8.10
2020,04,15,07,31,8.20
2020,04,15,07,32,8.20
2020,04,15,07,33,8.20
2020,04,15,07,34,8.20
2020,04,15,07,35,8.30
2020,04,15,07,36,8.30
2020,04,15,07,37,8.30
2020,04,15,07,38,8.30
2020,04,15,07,39,8.30
2020,04,15,07,40,8.20
2020,04,15,07,41,8.20
2020,04,15,07,42,8.20
2020,04,15,07,43,8.20
2020,04,15,07,44,8.20
2020,04,15,07,45,8.20
2020,04,15,07,46,8.20
2020,04,15,07,47,8.20
2020,04,15,07,48,8.30
2020,04,15,07,49,8.30
2020,04,15,07,50,8.30
2020,04,15,07,51,8.30
2020,04,15,07,52,8.40
2020,04,15,07,53,8.40
2020,04,15,07,54,8.50
2020,04,15,07,55,8.50
2020,04,15,07,56,8.60
2020,04,15,07,57,8.70
2020,04,15,07,58,8.70
2020,04,15,07,59,8.70
2020,04,15,08,00,8.80
2020,04,15,08,01,8.80
2020,04,15,08,02,8.80
2020,04,15,08,03,8.80
2020,04,15,08,04,8.80
2020,04,15,08,05,8.80
2020,04,15,08,06,8.80
2020,04,15,08,07,8.80
2020,04,15,08,08,8.80
2020,04,15,08,09,8.80
2020,04,15,08,10,8.80
2020,04,15,08,11,8.80
2020,04,15,08,12,8.90
2020,04,15,08,13,8.90
2020,04,15,08,14,9.00
2020,04,15,08,15,9.00
2020,04,15,08,16,9.10
2020,04,15,08,17,9.10
2020,04,15,08,18,9.10
2020,04,15,08,19,9.00
2020,04,15,08,20,9.00
2020,04,15,08,21,9.00
2020,04,15,08,22,8.90
2020,04,15,08,23,8.90
2020,04,15,08,24,8.90
2020,04,15,08,25,8.80
2020,04,15,08,26,8.80
2020,04,15,08,27,8.80
2020,04,15,08,28,8.80
2020,04,15,08,29,8.80
2020,04,15,08,30,8.80
2020,04,15,08,31,8.90
2020,04,15,08,32,8.90
2020,04,15,08,33,8.90
2020,04,15,08,34,8.90
2020,04,15,08,35,9.00
2020,04,15,08,36,9.10
2020,04,15,08,37,9.10
2020,04,15,08,38,9.10
2020,04,15,08,39,9.20
2020,04,15,08,40,9.20
2020,04,15,08,41,9.20
2020,04,15,08,42,9.20
2020,04,15,08,43,9.20
2020,04,15,08,44,9.20
2020,04,15,08,45,9.30
2020,04,15,08,46,9.40
2020,04,15,08,47,9.50
2020,04,15,08,48,9.50
2020,04,15,08,49,9.60
2020,04,15,08,50,9.70
2020,04,15,08,51,9.60
2020,04,15,08,52,9.70
2020,04,15,08,53,9.70
2020,04,15,08,54,9.80
2020,04,15,08,55,9.70
2020,04,15,08,56,9.70
2020,04,15,08,57,9.70
2020,04,15,08,58,9.70
2020,04,15,08,59,9.90
2020,04,15,09,00,10.00
2020,04,15,09,01,10.10
2020,04,15,09,02,10.10
2020,04,15,09,03,10.20
2020,04,15,09,04,10.30
2020,04,15,09,05,10.30
2020,04,15,09,06,10.30
2020,04,15,09,07,10.30
2020,04,15,09,08,10.30
2020,04,15,09,09,10.40
2020,04,15,09,10,10.40
2020,04,15,09,11,10.40
2020,04,15,09,12,10.30
2020,04,15,09,13,10.20
2020,04,15,09,14,10.10
2020,04,15,09,15,10.10
2020,04,15,09,16,10.30
2020,04,15,09,17,10.30
2020,04,15,09,18,10.40
2020,04,15,09,19,10.60
2020,04,15,09,20,10.60
2020,04,15,09,21,10.60
2020,04,15,09,22,10.60
2020,04,15,09,23,10.60
2020,04,15,09,24,10.70
2020,04,15,09,25,10.70
2020,04,15,09,26,10.70
2020,04,15,09,27,10.70
2020,04,15,09,28,10.60
2020,04,15,09,29,10.60
2020,04,15,09,30,10.50
2020,04,15,09,31,10.40
2020,04,15,09,32,10.20
2020,04,15,09,33,10.10
2020,04,15,09,34,10.10
2020,04,15,09,35,9.90
2020,04,15,09,36,9.90
2020,04,15,09,37,9.90
2020,04,15,09,38,9.90
2020,04,15,09,39,9.90
2020,04,15,09,40,9.90
2020,04,15,09,41,9.90
2020,04,15,09,42,10.00
2020,04,15,09,43,10.10
2020,04,15,09,44,10.10
2020,04,15,09,45,10.10
2020,04,15,09,46,10.10
2020,04,15,09,47,10.10
2020,04,15,09,48,10.10
2020,04,15,09,49,10.10
2020,04,15,09,50,10.00
2020,04,15,09,51,9.90
2020,04,15,09,52,9.80
2020,04,15,09,53,9.60
2020,04,15,09,54,9.40
2020,04,15,09,55,9.20
2020,04,15,09,56,9.20
2020,04,15,09,57,9.20
2020,04,15,09,58,9.10
2020,04,15,09,59,9.10
2020,04,15,10,00,9.00
2020,04,15,10,01,9.00
2020,04,15,10,02,9.00
2020,04,15,10,03,9.00
2020,04,15,10,04,9.10
2020,04,15,10,05,9.10
2020,04,15,10,06,9.10
2020,04,15,10,07,9.20
2020,04,15,10,08,9.10
2020,04,15,10,09,9.00
2020,04,15,10,10,8.90
2020,04,15,10,11,8.80
2020,04,15,10,12,8.80
2020,04,15,10,13,8.70
2020,04,15,10,14,8.60
2020,04,15,10,15,8.60
2020,04,15,10,16,8.60
2020,04,15,10,17,8.60
2020,04,15,10,18,8.60
2020,04,15,10,19,8.50
2020,04,15,10,20,8.60
2020,04,15,10,21,8.60
2020,04,15,10,22,8.60
2020,04,15,10,23,8.70
2020,04,15,10,24,8.70
2020,04,15,10,25,8.80
2020,04,15,10,26,8.90
2020,04,15,10,27,8.90
2020,04,15,10,28,9.00
2020,04,15,10,29,9.10
2020,04,15,10,30,9.10
2020,04,15,10,31,9.10
2020,04,15,10,32,9.20
2020,04,15,10,33,9.20
2020,04,15,10,34,9.40
2020,04,15,10,35,9.40
2020,04,15,10,36,9.30
2020,04,15,10,37,9.30
2020,04,15,10,38,9.30
2020,04,15,10,39,9.40
2020,04,15,10,40,9.40
2020,04,15,10,41,9.40
2020,04,15,10,42,9.30
2020,04,15,10,43,9.30
2020,04,15,10,44,9.30
2020,04,15,10,45,9.40
2020,04,15,10,46,9.40
2020,04,15,10,47,9.50
2020,04,15,10,48,9.50
2020,04,15,10,49,9.60
2020,04,15,10,50,9.70
2020,04,15,10,51,9.70
2020,04,15,10,52,9.70
2020,04,15,10,53,9.70
2020,04,15,10,54,9.60
2020,04,15,10,55,9.50
2020,04,15,10,56,9.60
2020,04,15,10,57,9.60
2020,04,15,10,58,9.60
2020,04,15,10,59,9.60
2020,04,15,11,00,9.60
2020,04,15,11,01,9.70
2020,04,15,11,02,9.70
2020,04,15,11,03,9.70
2020,04,15,11,04,9.70
2020,04,15,11,05,9.90
2020,04,15,11,06,10.10
2020,04,15,11,07,10.20
2020,04,15,11,08,10.40
2020,04,15,11,09,10.40
2020,04,15,11,10,10.50
2020,04,15,11,11,10.60
2020,04,15,11,12,10.60
2020,04,15,11,13,10.60
2020,04,15,11,14,10.60
2020,04,15,11,15,10.60
2020,04,15,11,16,10.60
2020,04,15,11,17,10.60
2020,04,15,11,18,10.60
2020,04,15,11,19,10.60
2020,04,15,11,20,10.60
2020,04,15,11,21,10.60
2020,04,15,11,22,10.60
2020,04,15,11,23,10.60
2020,04,15,11,24,10.60
2020,04,15,11,25,10.70
2020,04,15,11,26,10.70
2020,04,15,11,27,10.90
2020,04,15,11,28,11.00
2020,04,15,11,29,11.20
2020,04,15,11,30,11.30
2020,04,15,11,31,11.40
2020,04,15,11,32,11.60
2020,04,15,11,33,11.60
2020,04,15,11,34,11.60
2020,04,15,11,35,11.60
2020,04,15,11,36,11.80
2020,04,15,11,37,11.80
2020,04,15,11,38,11.80
2020,04,15,11,39,11.80
2020,04,15,11,40,11.80
2020,04,15,11,41,11.80
2020,04,15,11,42,11.90
2020,04,15,11,43,11.90
2020,04,15,11,44,11.90
2020,04,15,11,45,11.90
2020,04,15,11,46,12.00
2020,04,15,11,47,12.00
2020,04,15,11,48,12.00
2020,04,15,11,49,11.90
2020,04,15,11,50,11.90
2020,04,15,11,51,11.90
2020,04,15,11,52,12.00
2020,04,15,11,53,12.00
2020,04,15,11,54,11.90
2020,04,15,11,55,11.90
2020,04,15,11,56,11.90
2020,04,15,11,57,11.90
2020,04,15,11,58,11.80
2020,04,15,11,59,11.70
2020,04,15,12,00,11.70
2020,04,15,12,01,11.70
2020,04,15,12,02,11.70
2020,04,15,12,03,11.70
2020,04,15,12,04,11.80
2020,04,15,12,05,12.00
2020,04,15,12,06,12.10
2020,04,15,12,07,12.20
2020,04,15,12,08,12.30
2020,04,15,12,09,12.40
2020,04,15,12,10,12.50
2020,04,15,12,11,12.60
2020,04,15,12,12,12.50
2020,04,15,12,13,12.50
2020,04,15,12,14,12.40
2020,04,15,12,15,12.40
2020,04,15,12,16,12.40
2020,04,15,12,17,12.30
2020,04,15,12,18,12.20
2020,04,15,12,19,12.30
2020,04,15,12,20,12.20
2020,04,15,12,21,12.20
2020,04,15,12,22,12.30
2020,04,15,12,23,12.30
2020,04,15,12,24,12.30
2020,04,15,12,25,12.40
2020,04,15,12,26,12.50
2020,04,15,12,27,12.60
2020,04,15,12,28,12.70
2020,04,15,12,29,12.80
2020,04,15,12,30,12.90
2020,04,15,12,31,13.00
2020,04,15,12,32,13.10
2020,04,15,12,33,13.20
2020,04,15,12,34,13.30
2020,04,15,12,35,13.30
2020,04,15,12,36,13.30
2020,04,15,12,37,13.30
2020,04,15,12,38,13.30
2020,04,15,12,39,13.30
2020,04,15,12,40,13.30
2020,04,15,12,41,13.30
2020,04,15,12,42,13.30
2020,04,15,12,43,13.30
2020,04,15,12,44,13.40
2020,04,15,12,45,13.30
2020,04,15,12,46,13.10
2020,04,15,12,47,13.00
2020,04,15,12,48,12.90
2020,04,15,12,49,12.90
2020,04,15,12,50,13.00
2020,04,15,12,51,13.10
2020,04,15,12,52,13.10
2020,04,15,12,53,13.10
2020,04,15,12,54,13.10
2020,04,15,12,55,13.00
2020,04,15,12,56,13.00
2020,04,15,12,57,13.00
2020,04,15,12,58,12.90
2020,04,15,12,59,12.80
2020,04,15,13,00,12.80
2020,04,15,13,01,12.80
2020,04,15,13,02,12.90
2020,04,15,13,03,13.00
2020,04,15,13,04,13.10
2020,04,15,13,05,13.20
2020,04,15,13,06,13.30
2020,04,15,13,07,13.30
2020,04,15,13,08,13.30
2020,04,15,13,09,13.30
2020,04,15,13,10,13.30
2020,04,15,13,11,13.40
2020,04,15,13,12,13.40
2020,04,15,13,13,13.40
2020,04,15,13,14,13.50
2020,04,15,13,15,13.50
2020,04,15,13,16,13.50
2020,04,15,13,17,13.40
2020,04,15,13,18,13.50
2020,04,15,13,19,13.50
2020,04,15,13,20,13.50
2020,04,15,13,21,13.40
2020,04,15,13,22,13.40
2020,04,15,13,23,13.40
2020,04,15,13,24,13.30
2020,04,15,13,25,13.40
2020,04,15,13,26,13.50
2020,04,15,13,27,13.50
2020,04,15,13,28,13.50
2020,04,15,13,29,13.70
2020,04,15,13,30,13.60
2020,04,15,13,31,13.60
2020,04,15,13,32,13.50
2020,04,15,13,33,13.40
2020,04,15,13,34,13.30
2020,04,15,13,35,13.30
2020,04,15,13,36,13.30
2020,04,15,13,37,13.30
2020,04,15,13,38,13.30
2020,04,15,13,39,13.40
2020,04,15,13,40,13.50
2020,04,15,13,41,13.70
2020,04,15,13,42,13.70
2020,04,15,13,43,13.70
2020,04,15,13,44,13.70
2020,04,15,13,45,13.70
2020,04,15,13,46,13.70
2020,04,15,13,47,13.80
2020,04,15,13,48,14.00
2020,04,15,13,49,14.00
2020,04,15,13,50,14.10
2020,04,15,13,51,14.20
2020,04,15,13,52,14.20
2020,04,15,13,53,14.40
2020,04,15,13,54,14.50
2020,04,15,13,55,14.50
2020,04,15,13,56,14.40
2020,04,15,13,57,14.30
2020,04,15,13,58,14.30
2020,04,15,13,59,14.20
2020,04,15,14,00,14.30
2020,04,15,14,01,14.50
2020,04,15,14,02,14.50
2020,04,15,14,03,14.60
2020,04,15,14,04,14.70
2020,04,15,14,05,14.70
2020,04,15,14,06,14.80
2020,04,15,14,07,14.80
2020,04,15,14,08,14.80
2020,04,15,14,09,14.60
2020,04,15,14,10,14.40
2020,04,15,14,11,14.30
2020,04,15,14,12,14.20
2020,04,15,14,13,14.20
2020,04,15,14,14,14.20
2020,04,15,14,15,14.20
2020,04,15,14,16,14.30
2020,04,15,14,17,14.40
2020,04,15,14,18,14.40
2020,04,15,14,19,14.50
2020,04,15,14,20,14.40
2020,04,15,14,21,14.50
2020,04,15,14,22,14.40
2020,04,15,14,23,14.50
2020,04,15,14,24,14.50
2020,04,15,14,25,14.60
2020,04,15,14,26,14.70
2020,04,15,14,27,14.70
2020,04,15,14,28,14.70
2020,04,15,14,29,14.70
2020,04,15,14,30,14.70
2020,04,15,14,31,14.60
2020,04,15,14,32,14.70
2020,04,15,14,33,14.70
2020,04,15,14,34,14.60
2020,04,15,14,35,14.60
2020,04,15,14,36,14.50
2020,04,15,14,37,14.60
2020,04,15,14,38,14.50
2020,04,15,14,39,14.60
2020,04,15,14,40,14.70
2020,04,15,14,41,14.70
2020,04,15,14,42,14.70
2020,04,15,14,43,14.70
2020,04,15,14,44,14.70
2020,04,15,14,45,14.70
2020,04,15,14,46,14.60
2020,04,15,14,47,14.50
2020,04,15,14,48,14.50
2020,04,15,14,49,14.50
2020,04,15,14,50,14.50
2020,04,15,14,51,14.50
2020,04,15,14,52,14.60
2020,04,15,14,53,14.70
2020,04,15,14,54,14.70
2020,04,15,14,55,14.70
2020,04,15,14,56,14.80
2020,04,15,14,57,14.80
2020,04,15,14,58,14.90
2020,04,15,14,59,14.90
2020,04,15,15,00,14.80
2020,04,15,15,01,14.90
2020,04,15,15,02,14.80
2020,04,15,15,03,14.70
2020,04,15,15,04,14.70
2020,04,15,15,05,14.60
2020,04,15,15,06,14.50
2020,04,15,15,07,14.50
2020,04,15,15,08,14.40
2020,04,15,15,09,14.40
2020,04,15,15,10,14.50
2020,04,15,15,11,14.50
2020,04,15,15,12,14.60
2020,04,15,15,13,14.60
2020,04,15,15,14,14.60
2020,04,15,15,15,14.60
2020,04,15,15,16,14.60
2020,04,15,15,17,14.60
2020,04,15,15,18,14.50
2020,04,15,15,19,14.40
2020,04,15,15,20,14.50
2020,04,15,15,21,14.50
2020,04,15,15,22,14.50
2020,04,15,15,23,14.60
2020,04,15,15,24,14.60
2020,04,15,15,25,14.60
2020,04,15,15,26,14.60
2020,04,15,15,27,14.70
2020,04,15,15,28,14.70
2020,04,15,15,29,14.70
2020,04,15,15,30,14.70
2020,04,15,15,31,14.60
2020,04,15,15,32,14.60
2020,04,15,15,33,14.70
2020,04,15,15,34,14.70
2020,04,15,15,35,14.80
2020,04,15,15,36,14.80
2020,04,15,15,37,14.80
2020,04,15,15,38,14.80
2020,04,15,15,39,14.90
2020,04,15,15,40,14.90
2020,04,15,15,41,15.00
2020,04,15,15,42,15.00
2020,04,15,15,43,15.10
2020,04,15,15,44,15.20
2020,04,15,15,45,15.20
2020,04,15,15,46,15.10
2020,04,15,15,47,15.00
2020,04,15,15,48,15.00
2020,04,15,15,49,15.00
2020,04,15,15,50,15.00
2020,04,15,15,51,14.90
2020,04,15,15,52,14.90
2020,04,15,15,53,14.80
2020,04,15,15,54,14.80
2020,04,15,15,55,14.80
2020,04,15,15,56,14.90
2020,04,15,15,57,14.90
2020,04,15,15,58,14.80
2020,04,15,15,59,14.80
2020,04,15,16,00,14.80
2020,04,15,16,01,14.80
2020,04,15,16,02,14.80
2020,04,15,16,03,14.80
2020,04,15,16,04,14.80
2020,04,15,16,05,14.80
2020,04,15,16,06,14.80
2020,04,15,16,07,14.90
2020,04,15,16,08,14.90
2020,04,15,16,09,15.00
2020,04,15,16,10,15.00
2020,04,15,16,11,15.10
2020,04,15,16,12,15.20
2020,04,15,16,13,15.20
2020,04,15,16,14,15.30
2020,04,15,16,15,15.30
2020,04,15,16,16,15.40
2020,04,15,16,17,15.40
2020,04,15,16,18,15.50
2020,04,15,16,19,15.60
2020,04,15,16,20,15.60
2020,04,15,16,21,15.70
2020,04,15,16,22,15.70
2020,04,15,16,23,15.60
2020,04,15,16,24,15.60
2020,04,15,16,25,15.60
2020,04,15,16,26,15.60
2020,04,15,16,27,15.60
2020,04,15,16,28,15.60
2020,04,15,16,29,15.60
2020,04,15,16,30,15.60
2020,04,15,16,31,15.70
2020,04,15,16,32,15.70
2020,04,15,16,33,15.80
2020,04,15,16,34,15.80
2020,04,15,16,35,15.80
2020,04,15,16,36,15.80
2020,04,15,16,37,15.90
2020,04,15,16,38,16.00
2020,04,15,16,39,16.10
2020,04,15,16,40,16.10
2020,04,15,16,41,16.10
2020,04,15,16,42,16.00
2020,04,15,16,43,16.00
2020,04,15,16,44,16.10
2020,04,15,16,45,16.10
2020,04,15,16,46,16.10
2020,04,15,16,47,16.10
2020,04,15,16,48,16.10
2020,04,15,16,49,16.20
2020,04,15,16,50,16.20
2020,04,15,16,51,16.30
2020,04,15,16,52,16.30
2020,04,15,16,53,16.20
2020,04,15,16,54,16.30
2020,04,15,16,55,16.30
2020,04,15,16,56,16.30
2020,04,15,16,57,16.30
2020,04,15,16,58,16.30
2020,04,15,16,59,16.30
2020,04,15,17,00,16.30
2020,04,15,17,01,16.30
2020,04,15,17,02,16.40
2020,04,15,17,03,16.40
2020,04,15,17,04,16.40
2020,04,15,17,05,16.50
2020,04,15,17,06,16.60
2020,04,15,17,07,16.60
2020,04,15,17,08,16.70
2020,04,15,17,09,16.70
2020,04,15,17,10,16.70
2020,04,15,17,11,16.70
2020,04,15,17,12,16.70
2020,04,15,17,13,16.60
2020,04,15,17,14,16.60
2020,04,15,17,15,16.60
2020,04,15,17,16,16.60
2020,04,15,17,17,16.60
2020,04,15,17,18,16.70
2020,04,15,17,19,16.70
2020,04,15,17,20,16.70
2020,04,15,17,21,16.70
2020,04,15,17,22,16.70
2020,04,15,17,23,16.70
2020,04,15,17,24,16.70
2020,04,15,17,25,16.70
2020,04,15,17,26,16.70
2020,04,15,17,27,16.70
2020,04,15,17,28,16.70
2020,04,15,17,29,16.70
2020,04,15,17,30,16.70
2020,04,15,17,31,16.70
2020,04,15,17,32,16.70
2020,04,15,17,33,16.70
2020,04,15,17,34,16.70
2020,04,15,17,35,16.70
2020,04,15,17,36,16.80
2020,04,15,17,37,16.80
2020,04,15,17,38,16.90
2020,04,15,17,39,17.00
2020,04,15,17,40,17.00
2020,04,15,17,41,17.10
2020,04,15,17,42,17.20
2020,04,15,17,43,17.30
2020,04,15,17,44,17.30
2020,04,15,17,45,17.20
2020,04,15,17,46,17.20